STARLINK-32759 (62751 NORAD) Tracking and Keplerian Element Data

This shows tracking and keplerian element data for the satellite.

Feedback or suggestion? Click here.




ElementValue
Catalog62751
NameSTARLINK-32759
Epoch Orbit5104
Epoch Day354.10949463
Epoch Year2025
RAAN247.5432
Inclination43.0019
Eccentricity0.0001411
Argument of Perigee263.9867
Mean Anonmoly96.0824
Mean Motion15.27589898
Decay Rate0.0001633
L11 62751U 25014S 25354.10949463 .00016330 00000+0 60145-3 0 9999
L22 62751 43.0019 247.5432 0001411 263.9867 96.0824 15.27589898 51046



Live tracking and technical data element details for STARLINK-32759 (NORAD 62751). STARLINK-32759 can be tracked NOW for your location showing map with azimuth and elevation plus other details from your city location.







IsCatalogInMostPopularTable: catalog: 62751, numindb: 242
Update: records affected: 1



GetName: 62751 STARLINK-32759

Hit Count: updated at: Sat, 14 Mar 2026 03:02:03 GMT